Location: Baltimore
(39.2900°N, 76.6130°W)
Time: 21:37:23
(UTC-05:00)

Tiangong 1 - Visible Passes

Search period start: 13 December 2017 00:00
Search period end: 23 December 2017 00:00
Orbit: 275 x 302 km, 42.8° (Epoch: 13 December)

Date Brightness Start Highest point End Pass type
(mag) Time Alt. Az. Time Alt. Az. Time Alt. Az.
19 Dec 3.6 05:39:06 10° S 05:40:24 13° SE 05:41:42 10° ESE visible
20 Dec 2.5 05:43:11 22° S 05:43:51 25° SSE 05:46:01 10° E visible
21 Dec 1.2 05:47:10 48° SSE 05:47:15 48° SSE 05:49:42 10° ENE visible
22 Dec 0.5 05:50:48 72° ENE 05:50:48 72° ENE 05:53:06 10° ENE visible
